Theta_e
310 310 310 310 310 310 310 310 309 309 309 311 310 308 306 305 305 301 297 295 293 289 292 295 296 291 291 289 285 290 292 292 291 285 287 289 287 290 290 294 292 290 287 287 287 285 284 304 305 297 299 307 310 308
310 310 309 309 309 309 308 308 308 309 309 310 309 308 306 305 305 304 291 298 296 292 290 296 298 300 298 297 291 290 291 292 293 287 287 292 290 287 289 287 296 290 293 291 290 291 303 304 303 307 307 306 306 306
310 310 309 309 308 308 306 306 307 307 307 309 309 308 307 305 305 304 296 297 295 291 291 291 293 298 300 300 300 291 293 296 293 292 293 294 290 290 287 288 291 292 295 297 297 299 298 303 306 307 308 308 307 308
309 309 308 308 307 306 305 305 305 306 306 309 309 308 306 305 305 304 298 294 292 289 289 291 300 298 302 300 300 300 299 297 295 292 291 292 289 294 290 289 288 290 293 293 295 297 301 303 303 306 307 308 307 307
308 308 307 306 306 305 305 304 305 305 306 309 309 308 307 305 305 303 300 297 298 290 290 290 297 297 298 298 299 300 299 295 290 288 289 290 294 292 294 291 287 292 290 291 291 295 296 298 300 308 306 304 304 303
307 306 306 306 305 305 304 304 304 305 307 310 309 308 306 304 303 298 294 295 299 298 293 288 293 295 298 299 302 300 299 294 291 289 289 291 297 293 289 286 292 295 295 295 295 298 297 298 306 308 305 304 305 304
306 306 305 305 306 306 304 305 306 307 308 309 307 305 305 303 296 293 290 299 302 300 295 288 287 294 298 300 300 300 298 296 293 289 287 287 292 292 289 286 290 295 295 296 297 299 296 296 298 304 303 305 305 304
305 305 305 305 305 305 306 306 307 308 308 306 305 304 303 303 300 294 296 302 300 291 293 285 287 291 297 293 295 297 295 294 293 289 289 286 286 290 284 290 294 295 296 296 297 297 296 297 298 300 305 304 303 302
304 305 305 304 303 304 306 307 307 308 305 304 303 302 299 296 292 295 305 305 299 293 292 290 287 283 295 291 292 295 294 289 292 287 286 285 287 285 289 290 292 293 294 295 296 296 296 294 294 295 296 299 299 297
303 303 303 303 304 305 305 306 307 304 303 302 296 294 293 297 305 307 301 295 294 295 296 287 290 287 289 287 287 290 291 288 285 286 288 287 287 293 294 295 295 294 294 295 293 292 294 293 293 293 293 294 295 294
302 302 302 303 303 305 305 307 303 301 300 293 292 295 297 304 301 299 294 291 291 292 293 290 290 286 292 285 287 289 286 290 284 285 285 285 284 291 295 295 295 295 295 295 294 294 295 295 294 293 293 293 293 293
301 301 302 303 303 305 306 303 301 297 294 295 292 295 297 297 297 291 287 291 293 288 292 293 294 293 293 293 289 290 287 290 285 290 283 281 287 294 295 294 295 296 295 295 296 294 294 294 294 293 293 292 292 292
300 301 302 303 305 306 304 302 300 300 299 296 294 292 290 287 280 284 282 285 288 292 296 296 294 295 295 292 290 289 287 286 292 285 283 284 288 294 294 294 293 294 295 295 295 295 294 294 294 293 291 291 290 290
300 302 303 304 306 304 302 301 300 299 296 292 290 282 285 284 285 285 287 287 291 294 294 293 292 291 290 289 289 286 289 290 284 281 283 286 289 290 291 294 292 293 294 294 294 294 292 292 291 292 291 290 289 287
300 302 303 305 304 303 301 301 300 298 295 290 289 283 284 288 289 292 293 294 297 295 294 293 293 292 290 289 290 289 286 284 284 281 285 288 290 290 290 290 291 294 294 294 294 293 291 290 289 288 289 288 287 286
301 303 303 304 303 302 301 300 298 298 296 292 289 285 287 286 287 288 291 293 297 297 296 295 291 288 288 289 288 287 284 279 283 287 288 290 290 289 288 289 290 292 292 292 292 292 290 289 287 286 287 286 285 285
301 298 303 303 303 302 301 297 296 293 291 289 285 288 287 286 286 287 289 293 296 294 291 294 287 288 289 284 285 286 281 285 289 288 290 291 289 288 289 290 291 291 291 292 291 290 289 289 288 286 284 284 285 286
298 298 303 303 301 299 297 296 295 293 289 288 284 286 287 288 288 289 290 293 294 292 292 291 296 285 284 284 282 287 290 289 289 289 289 288 288 289 291 290 291 291 290 291 290 289 288 287 285 284 283 284 285 285
299 300 303 302 299 297 292 294 295 289 289 288 288 288 288 289 290 292 292 294 296 297 297 295 291 287 288 290 289 290 290 290 288 289 289 290 290 290 291 292 292 291 290 289 287 287 286 286 285 284 283 284 282 283
301 302 302 301 302 295 292 292 295 288 285 286 288 287 288 288 290 292 293 296 297 296 292 291 290 291 293 294 295 296 294 292 292 289 287 288 290 291 291 292 291 289 288 287 286 287 285 283 283 283 283 281 281 282
300 301 300 299 297 296 292 292 292 290 288 287 290 289 289 289 289 289 291 295 293 290 288 292 293 296 299 299 299 298 296 296 294 292 291 287 289 291 290 290 290 289 286 285 285 285 285 283 283 283 283 282 283 285
297 301 297 298 293 293 291 292 288 292 291 289 288 288 286 286 287 288 291 289 289 290 291 292 294 296 296 296 297 298 297 297 296 294 292 291 289 289 290 290 289 288 287 287 287 286 285 284 284 284 283 283 286 287
300 299 295 294 290 289 287 290 286 287 284 286 289 288 286 286 288 293 289 290 291 294 294 294 296 298 298 298 300 299 299 297 295 294 294 293 292 291 291 291 292 290 288 287 288 287 286 285 285 285 285 285 284 283
299 293 290 288 288 284 288 285 287 287 287 285 285 286 289 291 295 290 287 288 291 293 294 295 296 295 296 297 295 295 296 296 295 294 294 293 291 291 292 292 293 293 293 291 289 288 287 286 287 286 286 285 283 282
287 287 288 284 288 285 284 285 285 285 283 285 285 286 289 294 290 285 287 288 291 292 293 293 293 293 292 292 294 296 297 298 296 294 294 295 294 293 291 292 292 292 292 290 288 288 287 287 288 288 287 285 283 282
282 286 284 285 286 284 284 283 284 285 285 285 286 288 291 289 287 285 287 290 291 292 293 293 293 292 292 294 294 295 296 298 300 297 298 296 295 294 294 293 290 289 293 293 290 289 288 288 289 288 287 286 285 285
281 282 285 289 287 287 285 287 289 287 285 284 285 287 288 286 285 288 290 292 293 294 297 295 295 295 295 294 297 300 300 302 300 299 301 302 300 301 300 298 293 294 293 293 292 291 290 289 290 290 288 287 287 287
285 286 282 286 286 288 287 287 287 285 286 287 288 288 288 287 286 290 292 294 295 298 299 298 296 296 299 300 300 299 299 300 301 299 299 298 297 299 303 303 299 289 296 295 294 293 292 291 293 292 289 288 288 289
285 287 287 286 288 288 288 287 288 290 291 288 288 289 292 294 294 292 293 293 294 296 295 296 296 298 296 296 296 296 299 300 298 296 295 294 295 295 297 298 299 298 298 294 288 292 293 294 295 294 292 291 291 291
285 288 285 288 287 286 289 291 292 295 296 295 294 294 294 294 293 293 292 292 292 292 295 297 296 295 294 294 293 292 293 295 297 296 294 292 291 291 294 295 295 296 298 297 294 293 287 291 290 293 291 291 290 289
289 288 287 288 288 290 292 295 297 297 296 294 294 292 290 292 294 294 296 295 295 295 295 294 294 294 293 293 292 291 289 288 290 292 291 290 289 289 291 292 293 294 295 296 297 295 294 294 295 295 292 291 290 289
286 286 286 286 287 292 294 292 292 291 293 294 291 293 292 289 287 288 291 292 292 293 289 293 293 292 293 292 290 288 287 288 287 288 287 285 285 285 285 287 289 291 292 293 294 295 296 296 296 296 295 292 291 290
286 288 289 288 288 289 291 291 290 288 293 292 290 290 288 288 286 287 291 291 292 291 288 289 290 292 292 291 289 287 287 286 284 282 282 281 281 282 284 284 285 286 288 289 292 292 294 295 296 297 297 297 294 292
Wind_Speed
13 14 13 13 12 12 13 13 12 14 16 13 8 7 7 9 9 4 4 2 2 4 10 7 6 7 4 1 3 7 8 6 4 8 4 4 3 4 4 3 3 1 3 3 0 4 2 13 9 3 2 7 9 9
13 13 12 12 11 11 12 13 13 14 14 12 8 8 8 8 8 6 2 2 2 5 10 4 14 19 16 17 1 3 4 2 1 4 3 3 2 4 4 2 6 3 4 1 3 2 2 5 5 12 9 4 4 13
14 13 11 11 11 12 16 15 13 15 15 13 9 9 8 8 8 6 3 1 1 4 8 4 5 3 5 12 11 4 3 1 2 3 1 2 3 3 4 4 6 9 8 1 1 3 7 8 13 12 5 7 11 12
13 12 10 10 10 12 14 13 14 14 15 13 10 9 8 8 9 8 3 1 2 3 5 9 4 8 4 4 12 14 3 4 4 1 2 2 2 3 3 2 3 4 9 7 4 7 5 4 11 10 7 15 17 13
12 11 10 9 9 10 12 14 13 15 15 14 9 8 8 8 9 8 6 4 6 3 4 9 14 4 4 6 8 10 5 3 2 2 3 2 2 3 2 3 4 7 4 4 2 6 4 6 12 6 7 13 13 23
10 10 11 10 10 10 11 12 14 14 15 13 8 7 6 7 7 3 2 1 3 4 4 6 6 7 5 5 6 8 5 3 3 3 1 1 1 3 2 2 4 8 9 10 3 3 5 10 5 10 8 9 14 15
10 12 13 11 10 11 10 12 12 11 13 9 6 6 8 6 2 3 2 2 7 0 3 5 6 6 4 3 2 2 1 2 3 2 2 1 2 3 2 1 6 7 8 10 10 4 3 12 6 7 13 11 13 14
10 11 12 10 9 11 10 10 12 12 9 5 6 9 9 8 8 6 5 15 7 2 1 2 6 7 3 2 1 1 2 2 3 3 2 2 3 2 2 4 6 6 3 8 10 10 8 7 8 9 11 13 14 14
11 10 10 12 10 11 12 11 11 9 4 6 8 11 2 2 3 4 3 8 5 3 3 2 3 6 5 2 1 2 2 2 1 3 1 3 1 2 1 4 5 7 5 3 7 9 12 14 9 12 12 11 14 11
9 10 11 11 9 11 11 10 9 4 5 7 2 0 3 4 8 4 3 1 3 3 2 4 1 5 2 3 4 2 2 2 1 2 3 2 0 1 1 2 3 7 7 6 5 6 10 13 11 12 13 10 11 14
10 11 11 11 11 10 12 7 5 3 2 1 1 2 4 8 1 2 2 2 3 4 4 5 6 4 2 3 4 2 2 2 1 4 3 0 2 3 5 6 6 7 10 10 10 10 11 10 10 12 13 13 12 13
11 11 11 11 11 12 7 7 4 1 2 2 2 3 2 2 2 2 4 2 5 6 3 3 4 6 4 2 1 1 1 1 3 4 4 2 3 8 7 8 7 6 9 9 10 12 13 13 11 12 12 12 12 12
10 10 11 11 12 9 10 7 6 4 3 1 2 2 2 1 0 5 5 4 2 3 4 3 4 3 2 1 0 2 2 1 3 1 3 3 5 10 10 9 10 10 11 10 10 10 11 11 11 10 10 9 10 10
10 11 10 11 9 11 9 7 5 1 1 2 3 5 5 5 5 6 4 3 5 2 2 2 2 1 1 1 1 1 1 3 1 2 6 4 8 8 7 10 10 10 9 11 11 10 9 8 9 8 7 6 7 7
10 11 12 8 12 10 8 6 4 1 2 3 3 6 6 5 3 4 4 2 1 2 1 1 1 1 2 0 1 1 3 4 5 5 3 6 9 9 7 6 8 9 8 8 8 8 9 8 8 7 6 6 6 6
10 9 5 11 12 10 9 4 1 1 2 3 5 3 4 1 3 2 2 3 1 1 1 2 2 2 4 3 2 5 1 5 4 3 3 9 10 7 6 7 7 7 8 8 8 9 9 8 7 7 6 6 5 5
10 3 9 14 13 10 9 2 2 4 4 4 5 4 3 3 5 4 3 4 2 3 3 3 3 6 1 1 3 4 5 4 3 2 4 9 10 8 7 8 8 8 8 9 9 8 8 8 8 7 7 4 5 4
4 3 8 16 12 7 2 2 3 4 7 5 3 4 3 4 2 5 4 2 3 4 4 4 2 3 4 4 4 4 2 1 3 3 4 7 8 8 9 9 7 8 7 7 8 8 8 7 6 4 6 7 6 6
4 4 16 21 7 4 5 4 3 4 6 3 4 3 3 4 4 5 3 2 2 2 5 2 4 4 4 3 3 3 3 3 4 3 3 6 8 9 8 8 8 6 8 6 7 5 4 5 4 5 4 5 4 4
8 10 17 19 7 2 3 3 3 3 4 4 3 3 4 4 4 3 3 4 4 3 2 4 5 4 4 3 4 3 3 5 7 5 4 3 4 7 8 9 7 6 6 6 5 6 4 3 3 4 4 4 4 4
7 7 11 8 2 2 2 2 4 4 4 3 2 2 4 1 2 3 4 4 3 5 4 4 4 4 5 2 2 4 7 8 8 8 9 5 4 7 5 4 6 5 4 5 5 4 5 4 4 4 5 4 4 3
3 8 3 3 3 4 4 5 4 3 3 4 3 3 3 3 3 4 2 2 3 5 5 5 4 4 1 1 4 5 7 6 7 6 8 10 6 5 5 6 6 5 5 7 7 7 5 4 5 4 4 4 5 4
8 3 3 3 4 5 5 2 3 3 3 4 2 2 3 3 4 2 3 4 4 4 4 4 4 3 4 2 6 6 6 10 6 6 8 7 5 5 5 6 6 7 5 5 5 6 6 6 6 5 4 4 4 3
3 4 4 6 5 4 3 4 4 3 3 2 2 4 3 3 2 1 3 3 3 1 3 4 4 4 3 5 3 4 4 4 5 4 5 7 5 4 6 7 6 7 6 5 7 7 7 7 8 6 6 5 5 5
4 6 4 5 4 4 4 4 5 3 4 4 4 4 3 2 2 3 3 3 1 2 3 4 4 4 4 2 2 3 3 6 6 6 4 5 4 3 2 3 4 5 5 7 7 9 8 7 7 7 7 6 7 7
5 7 7 8 4 5 5 3 6 7 4 4 5 4 2 3 2 4 3 4 3 4 4 5 5 3 2 2 4 3 4 4 5 4 3 5 5 5 5 5 4 4 6 8 11 13 13 12 11 11 9 9 8 7
5 6 4 4 3 3 3 3 2 2 5 6 3 2 2 2 5 3 1 2 3 4 4 5 5 5 5 4 2 3 4 4 4 4 4 3 2 4 5 6 8 5 8 10 10 14 14 13 11 11 10 8 8 9
4 3 6 5 4 3 0 2 2 5 4 4 1 4 4 3 4 3 4 3 3 4 4 3 4 5 4 4 4 4 4 5 7 7 6 5 4 3 2 2 2 9 9 10 11 11 12 13 11 10 11 11 10 9
4 3 4 4 4 4 5 6 4 4 2 4 4 3 3 1 1 1 0 2 3 6 5 4 4 6 7 6 5 4 4 6 7 7 6 3 2 3 4 4 3 2 6 8 10 14 17 15 12 10 12 10 9 7
5 5 4 5 6 6 5 6 3 0 3 3 2 2 3 3 4 3 2 3 4 4 3 5 5 7 6 7 5 6 6 4 1 4 5 5 4 2 2 3 3 3 2 6 8 6 6 3 3 3 5 5 5 6
2 4 3 4 4 4 5 3 1 1 1 2 2 4 3 3 3 4 4 3 2 4 5 5 5 5 8 7 7 7 4 4 5 7 7 6 5 4 3 3 3 3 3 3 6 8 10 9 8 8 9 10 10 10
3 5 5 4 3 2 2 2 1 1 1 2 1 2 3 4 3 4 4 3 3 4 2 5 7 4 4 5 4 4 7 6 5 5 7 5 5 4 4 3 3 3 3 3 3 2 7 11 9 9 7 9 10 12
3 2 2 3 2 1 1 3 2 2 1 3 1 2 3 4 4 3 2 3 1 3 5 4 5 6 7 8 9 8 8 7 8 8 8 7 6 5 4 3 4 4 4 3 2 2 1 1 2 4 10 11 11 11
Wind_Direction
262 270 278 281 284 288 294 296 303 305 316 310 298 295 303 312 321 347 283 228 107 273 279 241 210 200 280 233 236 297 345 350 355 25 2 341 329 13 310 45 355 29 22 65 169 97 270 358 348 34 342 322 156 119
254 261 270 278 284 291 301 305 304 297 304 303 285 282 283 298 307 328 284 230 138 219 257 248 250 250 231 228 69 299 239 288 306 8 357 300 343 328 309 5 343 81 343 122 141 166 36 324 315 308 268 218 118 129
247 252 257 268 276 292 302 304 304 304 306 301 272 270 279 286 293 283 253 260 295 278 290 322 253 290 204 225 189 193 273 212 57 175 262 297 342 3 336 42 296 345 17 19 159 5 10 3 1 3 40 90 109 120
245 248 252 269 283 296 301 304 306 303 302 297 267 265 275 281 287 285 242 181 113 270 282 281 310 295 245 199 191 206 146 46 87 66 56 2 329 26 345 50 0 335 313 336 10 3 2 44 5 352 67 94 101 95
238 244 252 258 276 286 299 304 305 303 299 296 269 267 276 289 303 292 251 211 202 173 290 289 310 244 263 238 214 181 150 118 81 23 39 7 335 341 317 101 19 346 343 343 4 343 295 303 322 96 85 111 112 113
241 252 254 256 261 276 298 302 303 301 296 292 267 279 288 304 339 303 285 64 181 194 288 306 287 291 313 271 109 130 149 107 98 114 34 23 69 328 357 64 348 356 358 13 328 355 17 327 40 98 99 106 113 113
245 257 257 260 268 270 296 299 296 290 292 271 270 283 286 294 119 232 243 143 166 39 257 300 303 283 302 113 67 104 44 124 113 111 45 55 37 27 13 25 324 347 7 5 0 276 317 358 355 81 97 100 105 107
252 256 265 267 270 277 288 289 297 295 281 267 283 286 285 282 283 270 252 229 204 241 220 277 276 325 353 328 104 131 102 34 22 127 61 55 357 21 34 315 336 350 359 14 28 41 46 22 48 62 102 113 112 109
248 255 268 272 280 287 287 292 289 280 256 284 293 298 300 148 214 243 20 123 156 161 272 249 265 274 347 340 238 38 80 61 325 88 88 82 348 357 324 324 4 7 36 55 49 64 56 54 43 61 80 98 107 103
250 259 257 269 278 277 285 281 276 243 278 298 353 294 273 206 235 189 258 115 166 230 241 244 215 270 32 342 309 123 37 151 127 264 106 61 110 266 168 42 54 52 36 13 25 32 62 58 52 62 70 77 94 108
251 252 254 270 277 276 285 242 179 281 39 79 249 246 273 309 154 213 229 187 182 220 213 237 191 217 265 193 239 180 188 163 123 255 114 222 241 154 141 120 91 84 77 65 68 62 59 68 63 65 67 68 75 82
249 253 259 271 275 284 199 176 169 160 213 225 224 275 297 287 203 257 225 219 203 228 207 208 220 197 267 180 189 288 246 141 237 147 88 245 177 141 145 137 132 105 98 77 62 68 65 60 53 59 59 54 57 66
254 253 262 275 280 208 174 178 194 236 337 68 246 266 99 267 285 217 217 242 238 226 195 243 221 209 313 44 331 26 329 310 115 40 236 219 155 149 151 135 131 119 100 93 80 68 74 73 78 77 79 69 74 72
261 262 258 277 196 176 175 183 193 256 214 206 190 270 190 214 230 205 210 206 240 212 162 151 296 245 260 345 140 351 22 115 261 245 239 176 173 154 150 163 160 159 156 144 137 127 108 97 92 90 86 93 96 85
255 268 277 220 173 173 178 188 183 172 253 234 179 233 224 232 253 246 270 253 233 127 73 349 9 74 281 341 215 7 208 242 209 229 221 163 166 154 148 150 162 165 170 168 155 146 134 127 116 102 85 80 89 103
258 273 209 167 172 172 174 173 192 211 246 236 231 260 253 286 287 338 320 301 231 174 120 49 337 281 239 192 174 228 185 231 251 223 168 143 157 152 150 142 135 137 139 141 140 133 130 128 122 107 88 85 81 89
238 225 187 168 166 166 170 161 171 224 239 233 249 221 230 265 230 241 179 238 159 109 153 133 252 227 86 191 239 186 202 225 216 142 139 149 153 146 135 129 121 118 114 125 124 125 121 121 127 124 120 112 116 108
227 207 177 156 143 127 180 227 241 228 239 236 232 239 196 207 237 276 244 228 145 164 130 188 159 281 220 192 261 241 189 53 69 116 126 126 127 132 134 129 126 127 126 127 130 129 131 138 132 123 127 134 128 123
185 174 160 155 158 162 171 203 230 256 244 249 253 239 217 242 223 239 248 179 181 200 106 293 215 215 240 223 234 223 168 154 140 130 116 132 140 137 133 129 133 128 131 129 137 143 142 140 140 142 142 145 147 159
201 163 168 175 189 194 212 199 175 244 256 236 238 239 202 216 226 215 189 182 140 121 171 193 225 218 204 232 206 205 145 134 126 105 104 120 137 128 141 144 152 135 113 106 104 119 121 110 127 143 148 151 149 176
137 153 144 171 211 228 273 279 223 221 254 245 246 204 252 264 231 213 216 154 130 198 214 217 218 232 220 217 163 135 145 146 160 161 164 153 173 147 141 138 127 129 134 145 148 152 152 174 167 159 156 169 175 186
125 130 110 167 206 180 248 226 232 272 236 250 301 207 239 232 221 229 160 139 213 227 195 192 205 196 192 185 170 171 150 122 107 96 85 116 134 136 158 153 141 162 168 176 172 173 175 166 154 156 161 180 174 172
113 120 130 146 203 205 249 154 213 229 223 254 272 246 245 238 229 116 187 207 236 227 197 191 175 147 169 155 117 116 134 132 135 142 153 161 150 146 149 162 172 168 179 198 167 153 160 154 154 149 150 142 149 141
115 166 180 176 201 225 224 224 220 238 235 241 263 263 256 217 154 168 234 234 244 233 156 163 129 100 61 85 122 158 158 129 118 104 133 133 142 180 176 182 186 197 191 145 151 151 154 158 150 151 154 160 166 162
157 168 203 190 191 205 224 214 195 204 232 215 213 261 248 122 249 229 223 256 205 146 133 114 102 125 137 124 92 118 147 149 148 161 189 165 151 101 159 192 195 197 145 141 160 156 153 147 158 168 171 174 180 179
193 191 197 190 186 196 212 218 193 202 189 214 239 243 163 158 223 245 234 194 176 170 164 155 142 116 74 141 139 145 166 157 133 132 168 173 172 167 183 183 208 257 188 166 154 165 164 159 163 178 186 192 189 184
194 206 205 227 204 206 242 248 217 176 190 205 225 212 110 243 233 246 248 209 158 197 164 152 147 149 158 163 142 136 141 141 147 152 139 146 179 185 166 181 199 216 153 159 166 169 163 162 165 181 189 192 199 199
228 204 199 185 201 222 111 326 275 199 224 228 172 178 183 238 237 237 211 226 175 124 121 138 147 152 147 152 133 120 107 110 108 104 101 71 58 41 359 233 194 149 156 158 159 158 160 167 174 183 187 193 197 198
214 223 172 218 182 213 196 190 218 248 226 155 186 164 165 233 286 248 259 144 124 110 115 120 73 88 71 64 55 43 97 140 134 136 125 137 118 35 7 29 55 116 149 151 160 162 173 177 182 183 188 195 198 188
236 174 195 187 164 202 230 188 239 319 262 178 136 85 60 31 341 342 64 93 102 128 132 134 128 122 127 118 101 57 25 16 37 147 162 178 175 109 62 63 54 34 60 157 163 157 76 151 147 134 169 171 163 165
211 160 197 194 203 208 216 211 181 132 72 56 74 106 130 139 27 15 25 1 81 109 101 94 89 121 128 131 128 118 93 9 48 76 88 97 98 86 70 56 48 40 48 82 164 175 177 198 204 191 178 181 184 178
181 198 176 175 218 271 95 92 118 77 178 125 113 108 78 60 35 315 341 13 93 101 81 118 123 128 102 89 69 76 105 108 81 80 83 87 84 73 57 39 34 46 58 64 74 121 193 200 193 174 173 196 195 191
149 169 155 134 64 45 102 95 70 4 281 133 122 133 110 132 168 242 316 8 171 153 141 110 92 93 101 106 111 102 93 98 101 93 89 90 92 84 61 36 33 36 46 57 73 71 50 104 144 189 203 194 194 197